TimeCDT,TemperatureF,Dew PointF,Humidity,Sea Level PressureIn,VisibilityMPH,Wind Direction,Wind SpeedMPH,Gust SpeedMPH,PrecipitationIn,Events,Conditions,WindDirDegrees,DateUTC
12:02 AM,64.4,62.6,94,29.97,1.5,Calm,Calm,-,N/A,,Clear,0,2013-10-19 05:02:00
12:12 AM,64.4,62.6,94,29.98,4.0,Calm,Calm,-,N/A,,Scattered Clouds,0,2013-10-19 05:12:00
12:21 AM,66.2,64.4,94,29.98,6.0,Calm,Calm,-,N/A,,Mostly Cloudy,0,2013-10-19 05:21:00
12:53 AM,66.9,64.9,93,29.97,6.0,Calm,Calm,-,N/A,,Overcast,0,2013-10-19 05:53:00
1:53 AM,68.0,64.0,87,29.96,9.0,Calm,Calm,-,N/A,,Overcast,0,2013-10-19 06:53:00
2:05 AM,68.0,64.4,88,29.97,10.0,Calm,Calm,-,N/A,,Overcast,0,2013-10-19 07:05:00
2:53 AM,66.9,64.0,90,29.96,9.0,Calm,Calm,-,N/A,,Clear,0,2013-10-19 07:53:00
3:53 AM,64.9,63.0,93,29.94,7.0,Calm,Calm,-,0.00,,Clear,0,2013-10-19 08:53:00
4:53 AM,64.9,61.0,87,29.94,10.0,Calm,Calm,-,N/A,,Mostly Cloudy,0,2013-10-19 09:53:00
5:53 AM,64.9,60.1,84,29.95,10.0,Calm,Calm,-,N/A,,Partly Cloudy,0,2013-10-19 10:53:00
6:53 AM,64.0,60.1,87,29.94,10.0,Calm,Calm,-,N/A,,Clear,0,2013-10-19 11:53:00
7:53 AM,64.9,61.0,87,29.94,7.0,NNE,3.5,-,0.00,Rain,Light Rain,30,2013-10-19 12:53:00
8:53 AM,66.9,63.0,87,29.96,7.0,ENE,3.5,-,0.00,,Mostly Cloudy,70,2013-10-19 13:53:00
9:53 AM,70.0,63.0,78,30.00,10.0,NNE,4.6,-,N/A,,Mostly Cloudy,30,2013-10-19 14:53:00
10:38 AM,71.6,62.6,73,30.03,10.0,NNW,6.9,-,N/A,,Overcast,340,2013-10-19 15:38:00
10:53 AM,72.0,62.1,71,30.03,10.0,North,5.8,-,N/A,,Overcast,360,2013-10-19 15:53:00
11:10 AM,71.6,60.8,69,30.03,10.0,NNW,9.2,-,N/A,,Overcast,340,2013-10-19 16:10:00
11:24 AM,73.4,60.8,65,30.03,10.0,Variable,6.9,-,N/A,,Mostly Cloudy,0,2013-10-19 16:24:00
11:53 AM,73.9,59.0,59,30.01,10.0,NNW,8.1,16.1,N/A,,Scattered Clouds,330,2013-10-19 16:53:00
12:53 PM,73.9,60.1,62,29.96,10.0,NE,6.9,-,N/A,,Clear,50,2013-10-19 17:53:00
1:53 PM,73.0,61.0,66,29.94,10.0,ENE,3.5,-,N/A,,Partly Cloudy,60,2013-10-19 18:53:00
2:53 PM,71.1,63.0,75,29.93,8.0,Calm,Calm,-,0.00,Rain,Light Rain,0,2013-10-19 19:53:00
3:53 PM,72.0,63.0,73,29.95,10.0,NNW,4.6,-,0.00,,Scattered Clouds,340,2013-10-19 20:53:00
4:53 PM,70.0,62.1,76,29.95,10.0,North,6.9,-,N/A,,Scattered Clouds,360,2013-10-19 21:53:00
5:17 PM,69.8,60.8,73,29.95,10.0,NNW,10.4,-,N/A,,Mostly Cloudy,340,2013-10-19 22:17:00
5:53 PM,66.9,61.0,81,29.96,10.0,North,6.9,-,N/A,,Overcast,360,2013-10-19 22:53:00
6:03 PM,66.2,60.8,83,29.95,10.0,NNE,5.8,-,N/A,,Overcast,20,2013-10-19 23:03:00
6:53 PM,66.0,61.0,84,29.96,10.0,North,5.8,-,N/A,,Overcast,360,2013-10-19 23:53:00
7:19 PM,66.2,60.8,83,29.97,10.0,North,5.8,-,N/A,,Overcast,360,2013-10-20 00:19:00
7:32 PM,66.2,60.8,83,29.98,10.0,North,6.9,-,N/A,,Overcast,350,2013-10-20 00:32:00
7:53 PM,66.0,61.0,84,29.98,10.0,North,3.5,-,N/A,,Overcast,360,2013-10-20 00:53:00
8:53 PM,64.9,59.0,81,30.00,10.0,North,5.8,-,0.00,Rain,Light Rain,360,2013-10-20 01:53:00
9:53 PM,64.0,57.9,80,30.00,10.0,Calm,Calm,-,0.00,,Overcast,0,2013-10-20 02:53:00
10:53 PM,63.0,59.0,87,29.99,10.0,Calm,Calm,-,N/A,,Overcast,0,2013-10-20 03:53:00
11:53 PM,64.0,59.0,84,29.99,10.0,Calm,Calm,-,N/A,,Overcast,0,2013-10-20 04:53:00